This is the latest recevied weather packets stored in our database for station/object S56OA-13. If no packets are shown the sender has not sent any weather packets the latest 10 day(s).
| Time | Temp. | Humidity | Pressure | Rain* | Wind** | Luminosity | Snow |
|---|---|---|---|---|---|---|---|
| 1788180406 | 37.22° C | 39% | 938.1 hPa | - | - | - | - |
| 1788178611 | 36.11° C | 40% | 934.6 hPa | - | - | - | - |
| 1788176779 | 35° C | 40% | 930.4 hPa | - | - | - | - |
| 1788174904 | 32.22° C | 43% | 924.8 hPa | - | - | - | - |
| 1788173102 | 30.56° C | 43% | 917.8 hPa | - | - | - | - |
| 1788171301 | 31.11° C | 43% | 917.8 hPa | - | - | - | - |
| 1788169485 | 31.67° C | 42% | 918.4 hPa | - | - | - | - |
| 1788167684 | 32.22° C | 41% | 918.8 hPa | - | - | - | - |
| 1788165882 | 30.56° C | 41% | 913.4 hPa | - | - | - | - |
| 1788164082 | 30.56° C | 41% | 911.8 hPa | - | - | - | - |
| 1788162280 | 29.44° C | 41% | 908.5 hPa | - | - | - | - |
| 1788160485 | 28.33° C | 41% | 903.9 hPa | - | - | - | - |
| 1788158678 | 26.67° C | 41% | 898.7 hPa | - | - | - | - |
| 1788156877 | 25° C | 41% | 892.3 hPa | - | - | - | - |
| 1788151473 | 17.78° C | 42% | 869.2 hPa | - | - | - | - |
| 1788149672 | 17.78° C | 42% | 869.2 hPa | - | - | - | - |
| 1788147870 | 18.33° C | 42% | 870 hPa | - | - | - | - |
| 1788146069 | 17.78° C | 42% | 870.4 hPa | - | - | - | - |
| 1788144268 | 18.33° C | 42% | 869.8 hPa | - | - | - | - |
| 1788142467 | 17.78° C | 42% | 869.7 hPa | - | - | - | - |
| 1788140666 | 18.33° C | 42% | 870.6 hPa | - | - | - | - |
| 1788138864 | 18.33° C | 42% | 872 hPa | - | - | - | - |
| 1788137063 | 18.89° C | 42% | 872.3 hPa | - | - | - | - |
| 1788135262 | 18.89° C | 42% | 872.2 hPa | - | - | - | - |
| 1788133461 | 18.33° C | 42% | 871.9 hPa | - | - | - | - |
* Rain since midnight (hover to see other rain measurements)
** Current wind speed in m/s (hover to see current wind gust speed)